Dewpoint
59 58 58 57 57 59 58 58 58 57 58 59 59 59 59 59 57 57 58 58 58 58 60 58 59 58 59 60 60 60 59 60 59 59 58 58 59 58 58 57 58 57 55 55 57 56 54 53 55 58 59 60 59 59 58 57 56 56 56 55 54 54 54
57 57 57 58 57 57 56 56 56 55 54 55 56 57 57 58 60 57 57 57 58 58 59 57 57 58 59 59 59 59 59 59 59 59 59 58 58 58 57 56 56 55 55 55 55 56 55 54 54 55 56 58 57 56 55 54 53 53 54 54 54 53 54
57 56 56 56 56 56 55 54 54 53 53 54 54 56 57 57 57 57 56 56 57 58 58 56 56 56 57 58 59 59 58 58 58 59 59 58 57 57 57 57 55 54 54 54 54 55 55 56 54 55 56 55 54 54 53 52 51 51 51 52 52 52 52
55 55 55 55 55 55 55 53 52 52 53 53 54 55 56 56 56 57 56 56 57 59 56 54 54 54 55 55 55 56 57 57 57 57 57 57 57 57 57 57 55 55 54 53 53 54 55 55 55 55 55 54 54 53 51 51 50 48 49 51 50 50 50
55 55 55 55 55 55 54 52 52 52 52 52 53 54 55 55 56 56 56 55 55 53 53 53 53 52 52 52 52 52 52 52 54 56 56 56 57 57 57 56 55 54 53 54 54 54 56 55 55 54 54 53 51 49 48 49 47 46 46 46 48 50 50
55 55 54 54 54 54 53 52 52 52 51 52 53 54 53 54 55 53 53 53 53 53 53 52 52 52 51 51 50 49 49 50 52 54 56 56 57 57 57 55 55 54 54 54 54 55 56 55 55 53 52 51 51 49 50 48 46 46 46 45 45 45 46
55 54 54 54 53 53 53 52 52 52 51 52 52 53 53 54 54 54 53 52 52 53 52 52 51 51 50 49 49 49 49 48 49 51 52 52 54 54 55 56 55 55 55 54 54 55 55 54 53 52 51 50 50 47 45 47 45 41 44 47 46 45 45
55 54 54 54 53 53 52 52 52 52 52 51 52 52 54 53 53 52 52 52 52 52 52 51 51 51 52 50 50 51 50 49 49 50 49 51 51 53 55 56 55 55 54 54 54 55 55 54 53 52 49 47 46 46 46 42 43 45 44 45 47 45 47
55 54 54 53 53 53 52 52 52 51 52 52 52 52 52 52 52 52 52 51 50 50 51 50 51 50 50 49 49 49 49 51 48 48 48 49 49 51 53 54 55 54 54 54 54 54 54 55 53 52 49 46 44 44 45 46 45 44 45 44 44 46 46
54 53 53 52 52 52 52 52 51 52 52 52 51 51 51 51 52 51 50 49 50 50 50 50 50 49 49 48 48 48 48 49 50 48 48 48 48 49 52 54 55 54 54 54 53 53 53 54 53 53 50 48 47 45 44 44 44 46 44 42 43 44 48
54 53 52 52 52 52 51 52 52 52 51 52 51 51 51 51 52 53 49 49 49 50 50 50 49 48 48 48 48 49 48 49 48 48 49 48 48 49 50 51 54 54 54 53 53 53 53 53 53 52 49 49 48 45 44 43 43 44 45 42 43 43 47
54 53 52 52 52 51 51 52 52 51 51 52 52 51 51 51 50 49 49 49 49 49 49 49 49 49 48 49 49 48 48 48 47 48 49 49 49 49 49 48 49 51 52 53 52 52 52 52 52 49 47 48 48 48 45 45 42 44 45 45 43 41 46
54 52 52 52 51 51 51 51 51 51 51 52 50 51 50 49 49 48 49 49 48 49 49 49 49 49 48 48 48 47 47 48 47 48 48 49 48 48 48 47 48 49 51 52 52 52 51 51 51 48 47 46 46 47 47 45 42 42 45 45 43 40 46
54 52 52 52 51 51 51 52 51 51 51 50 51 50 50 49 48 49 48 49 48 49 49 49 49 49 48 47 48 48 48 48 47 48 50 49 49 49 49 47 47 47 50 52 51 51 51 50 50 49 46 45 45 46 45 44 42 42 43 46 46 42 45
53 52 52 52 51 51 51 51 51 51 50 51 51 50 49 49 49 49 48 49 49 49 49 50 50 49 48 49 49 49 48 48 48 48 49 49 49 49 49 48 48 48 47 50 50 49 50 49 48 47 45 44 44 45 46 45 43 43 42 44 44 43 43
53 52 52 52 51 51 51 51 52 51 50 51 52 51 50 50 50 50 49 49 49 49 50 51 50 49 49 49 50 50 50 49 48 49 49 49 49 49 49 50 49 49 48 49 49 49 50 49 48 47 46 44 43 44 44 45 44 43 42 43 45 42 45
54 53 52 52 51 51 51 51 52 51 51 51 51 52 51 51 51 50 50 50 50 50 52 52 51 50 50 51 51 52 51 50 50 50 50 50 50 50 49 50 50 49 49 48 48 48 48 49 49 47 46 45 45 43 46 45 45 45 45 43 47 41 45
54 54 53 53 52 51 51 51 51 51 51 51 51 52 52 51 51 51 51 50 51 51 52 52 52 52 52 52 53 53 52 52 51 51 51 51 53 51 51 50 50 49 49 49 49 48 48 48 46 47 45 44 44 45 47 46 46 45 43 44 47 47 47
54 53 53 53 52 52 52 51 51 52 51 51 51 52 52 52 51 51 51 51 51 52 53 53 53 53 53 54 54 54 53 53 53 53 53 53 52 52 52 51 50 49 49 49 49 49 49 48 47 47 46 45 45 47 47 47 46 46 44 46 47 46 47
55 54 54 54 53 53 52 52 51 51 52 51 51 51 52 52 52 51 52 53 53 53 54 54 54 54 54 54 54 54 53 53 53 53 52 53 52 52 53 52 51 50 50 49 49 49 49 49 49 48 48 48 47 47 47 47 46 46 47 47 46 47 46
54 55 54 54 54 53 53 52 52 52 53 51 51 51 51 52 52 52 53 53 54 55 54 54 54 54 54 54 54 54 54 53 53 53 53 53 53 53 53 53 52 51 51 50 50 49 50 50 50 49 49 49 48 48 47 48 48 47 47 46 46 45 45
55 55 54 54 54 54 54 53 53 53 53 52 52 51 52 52 52 52 53 54 55 55 55 55 55 54 54 54 53 54 53 53 53 53 53 52 52 52 52 52 52 52 54 52 51 50 50 50 50 49 49 49 48 48 48 48 48 47 47 47 45 45 45
55 55 54 54 54 54 54 54 54 53 53 53 52 52 52 52 52 52 53 54 55 55 55 54 54 51 51 54 54 53 53 53 53 53 53 52 52 52 52 51 55 56 54 52 49 46 45 46 48 50 49 49 48 48 47 47 47 47 47 46 45 44 44
54 54 54 54 53 53 53 54 54 54 54 53 53 53 52 52 53 53 53 54 54 55 54 54 49 46 47 49 53 54 54 53 53 53 52 52 52 52 51 50 51 54 52 50 46 42 42 42 43 43 44 46 48 48 47 47 47 48 47 46 45 45 44
51 53 52 53 53 53 52 52 52 53 53 53 53 53 53 53 53 54 54 54 54 54 53 51 46 45 45 46 49 54 53 53 53 53 53 52 52 52 51 50 49 49 49 48 46 45 43 41 40 40 40 40 40 40 43 47 47 46 46 45 45 45 44
51 51 51 51 51 51 52 52 51 51 52 53 53 52 53 53 53 54 54 53 53 53 52 48 44 43 43 42 43 50 53 53 53 53 53 52 52 52 50 50 49 50 50 50 47 45 45 44 42 41 42 42 41 40 38 40 43 48 47 46 45 44 44
51 50 51 50 50 50 49 50 50 50 51 52 52 51 51 52 52 52 52 52 52 51 51 47 42 43 43 43 42 45 53 53 53 53 53 53 53 52 51 50 49 50 48 47 46 46 46 46 46 45 44 43 43 43 41 40 40 41 44 46 45 44 44
52 52 50 50 49 50 48 48 49 49 50 51 50 49 50 51 51 51 51 51 51 50 50 43 43 43 43 42 41 42 53 53 53 52 52 52 52 52 51 50 50 49 47 46 46 46 46 46 45 44 42 41 41 40 41 43 45 46 46 46 46 45 44
53 53 52 50 49 50 48 48 49 49 49 48 47 47 48 49 50 50 50 50 50 50 47 40 41 42 42 42 41 50 53 53 52 52 52 52 52 52 51 51 49 48 46 46 44 41 43 46 44 42 40 40 39 38 38 38 38 41 44 45 45 44 43
49 50 51 50 49 49 49 50 49 48 50 48 49 49 48 48 49 50 49 49 49 48 46 42 41 41 41 40 43 50 52 51 51 51 51 52 52 52 51 50 49 47 46 45 42 39 39 42 43 42 40 39 38 37 36 37 37 36 36 36 36 36 36
38 39 40 42 45 48 49 48 48 48 49 48 49 48 48 49 48 49 49 48 49 48 48 43 39 40 40 39 44 50 51 50 49 49 49 50 51 51 51 49 49 47 47 46 39 39 38 41 42 40 39 38 38 36 36 37 38 39 37 36 36 35 35
36 37 36 37 40 42 45 48 49 49 49 49 48 47 48 49 48 47 48 48 50 48 48 47 40 40 40 39 42 48 50 50 49 48 48 47 47 49 49 49 48 46 46 44 38 38 38 41 41 40 40 39 38 37 36 38 39 39 39 39 39 37 36
37 37 36 36 37 39 41 43 45 49 49 49 49 47 48 48 49 48 47 47 48 47 47 47 43 39 39 39 39 46 49 49 49 47 47 48 47 46 46 46 45 41 41 39 38 38 38 39 41 41 40 39 38 37 38 39 40 39 39 39 38 38 37
37 37 37 36 37 37 38 39 40 43 46 46 46 46 46 47 47 47 46 46 47 46 48 48 45 39 39 39 39 40 47 47 47 48 47 47 47 47 45 45 44 41 39 38 38 38 38 38 38 41 41 39 40 39 39 40 39 38 39 39 38 38 37
37 38 38 37 36 36 37 37 38 40 42 43 42 43 42 43 44 45 44 46 47 47 48 48 46 40 38 38 38 38 43 45 48 48 47 46 45 46 46 44 43 40 38 38 38 38 38 38 38 41 41 37 36 36 40 39 38 37 37 36 36 35 35
35 37 37 38 36 36 36 36 37 38 38 38 39 40 42 41 42 43 43 43 43 44 44 44 42 43 39 38 37 37 38 41 42 47 46 44 46 47 43 43 42 39 38 38 38 38 38 38 39 40 36 36 36 36 36 37 36 36 35 35 35 34 34
34 35 36 37 37 36 36 35 35 37 38 38 38 38 41 41 42 42 43 42 42 42 41 41 39 39 39 37 37 38 38 38 40 46 46 45 44 44 42 41 40 37 37 38 38 38 38 38 38 35 35 35 35 36 37 36 36 35 34 33 34 34 34